Location: Chochol
(49.7771°N, 14.9780°E)
Time: 00:32:27
(UTC+00:00)

Cosmos 489 Rocket - Pass Details

Date: 09 April 2020
Orbit: 952 x 983 km, 74.0° (Epoch: 04 June)

Event Time Altitude Azimuth Distance (km) Brightness Sun altitude
Rises 20:05:19 0° 336° (NNW) 3,640 8.7 -20.7°
Reaches altitude 10° 20:07:51 10° 336° (NNW) 2,691 7.8 -21.0°
Maximum altitude 20:14:05 87° 66° (ENE) 964 4.4 -21.7°
Enters shadow 20:16:25 42° 155° (SSE) 1,346 4.8 -22.0°
